RADUGA-1 2 [-]

Last updated on Jan. 23, 2021, 7:21 a.m. UTC

1 21038U 90116A   21022.86940595 -.00000122  00000-0  00000-0 0  9990
2 21038  14.5578 353.2662 0008483  64.3454  93.7666  1.00330559 27576
UTC
Height (km)
Latitude
Longitude
Inclination
Orbital Period
UTC large
Height (km)
Speed (km/s)
/
Latitude / Longitude
Inclination (degrees)
Orbital Period (minutes)
Azimuth
Elevation
Range (km)
Doppler Factor
iOS Compass Heading
iOS Angle

Next 30 passes for location: Hong Kong

Rise time Rise Azimuth (degrees) Set time Set Azimuth (degrees) Duration Max altitude (degrees)

No matching passes for this satellites